Theta_e
313 312 313 313 312 312 311 311 309 310 308 308 309 309 309 311 308 308 310 308 306 307 305 306 306 305 304 303 302 301 302 303 303 303 303 304 304 303 303 302 300 301
312 311 310 310 308 308 309 310 310 310 309 307 308 307 307 306 304 306 305 304 302 302 302 304 304 304 303 303 301 301 300 302 303 303 304 303 303 302 302 301 301 300
311 310 311 311 312 310 309 309 310 309 308 307 304 305 305 305 304 303 303 303 302 300 301 300 299 301 302 302 301 301 300 299 301 301 302 302 301 301 301 300 299 299
310 311 311 310 310 309 307 306 306 306 305 304 304 304 305 303 303 301 300 299 301 299 298 299 299 298 297 297 299 298 301 301 300 301 300 299 299 299 299 299 299 298
309 309 308 308 307 307 306 306 305 304 305 303 302 302 302 302 301 299 298 295 297 295 297 297 297 296 296 295 294 296 297 298 297 297 296 297 297 299 299 298 297 296
306 307 307 307 306 306 305 305 304 303 302 302 302 301 301 300 298 296 296 296 294 296 295 295 295 295 294 293 293 294 294 297 298 297 296 296 297 296 299 298 297 296
306 306 304 304 304 305 304 303 302 302 302 302 299 299 297 295 295 295 295 294 294 295 296 294 295 295 295 295 296 296 297 297 296 297 298 297 298 296 296 297 295 295
305 302 303 302 302 301 302 301 300 299 299 297 297 295 296 295 295 295 294 294 294 295 296 297 299 301 296 296 295 296 296 299 297 297 295 295 294 295 294 294 294 294
301 300 300 299 299 297 297 297 296 294 295 297 296 294 295 295 294 294 294 295 295 295 297 297 298 296 296 297 297 297 296 296 296 294 294 294 293 294 294 294 293 292
298 296 297 296 297 295 296 294 294 294 294 295 294 294 294 293 294 293 292 293 294 295 295 295 295 295 295 295 297 295 295 294 294 294 295 293 293 292 292 292 292 292
295 295 296 295 295 293 294 293 293 293 294 294 293 293 293 292 292 291 291 293 294 294 296 296 295 295 296 296 295 294 294 294 292 291 291 291 292 292 292 290 290 289
295 294 295 294 294 293 293 293 292 292 293 293 294 294 291 291 292 292 292 291 292 294 294 294 293 292 292 292 291 291 290 290 290 289 288 288 288 288 288 288 288 287
294 294 294 293 292 292 291 292 292 290 292 292 291 292 291 290 289 290 289 290 290 289 289 289 289 289 288 287 287 286 286 286 286 286 287 285 286 286 286 287 287 287
293 291 291 292 291 291 291 291 290 290 290 290 289 290 290 290 290 290 289 289 289 289 288 287 288 287 285 284 284 285 284 284 284 284 284 283 283 283 283 284 285 285
290 290 291 291 290 291 290 290 290 290 289 289 289 289 289 289 289 289 289 289 288 288 287 287 288 287 286 285 285 284 284 284 283 283 283 284 283 283 283 283 283 284
289 290 290 290 290 290 290 289 289 289 289 288 288 288 288 288 288 288 288 289 288 287 287 288 287 287 288 290 289 285 283 283 282 282 283 283 283 283 282 283 283 283
289 289 289 290 289 289 288 288 288 288 288 288 287 287 287 287 288 288 287 287 288 288 288 287 286 287 290 292 292 291 284 283 282 282 282 283 282 282 282 284 284 283
288 288 288 288 288 288 287 287 287 287 287 287 287 287 287 287 287 287 287 287 287 287 286 286 286 290 292 291 291 291 288 283 281 282 282 283 282 283 282 282 284 285
288 288 287 287 287 287 287 287 287 287 287 287 287 287 286 287 286 286 285 285 286 286 285 285 285 290 290 291 291 291 290 285 281 282 282 283 284 284 283 282 284 285
287 287 287 287 286 286 286 286 286 286 286 286 286 285 286 285 285 284 284 285 285 285 284 283 283 288 290 290 290 290 289 287 281 281 281 282 284 284 284 284 284 284
287 287 286 286 286 286 286 286 286 285 285 285 285 285 285 285 284 284 284 283 283 283 283 283 285 289 289 289 289 289 288 286 280 282 282 282 283 284 285 285 285 285
286 286 286 286 286 285 285 285 285 285 284 283 283 283 283 283 283 283 283 282 282 283 282 282 284 288 288 289 288 288 287 282 281 281 282 283 284 284 284 284 284 284
286 286 285 285 285 285 284 284 283 283 282 283 283 283 283 283 282 282 282 282 282 282 282 281 282 286 288 288 288 287 284 277 280 280 281 283 283 283 284 284 284 284
286 286 285 285 284 284 283 282 282 282 282 282 283 282 282 282 282 282 282 281 281 281 281 281 281 284 287 288 287 286 284 280 280 281 281 282 282 283 283 283 283 284
285 285 285 284 283 283 282 281 281 281 281 281 281 282 282 281 282 281 281 281 281 281 282 281 281 283 287 287 286 286 284 280 280 280 280 281 281 281 282 282 282 283
283 283 283 282 282 281 281 280 280 280 280 281 280 281 281 281 281 282 282 282 282 282 282 282 281 279 284 286 285 285 285 282 281 280 281 281 281 280 280 280 281 281
Wind_Speed
8 7 8 8 7 7 8 8 6 7 6 5 6 6 7 7 6 7 7 6 5 5 4 5 5 4 4 4 4 4 4 5 4 4 4 5 4 5 5 5 3 4
9 8 7 6 5 5 6 7 7 7 7 6 7 7 6 5 5 6 6 5 5 4 4 5 5 5 5 4 4 4 4 4 5 3 4 4 5 4 4 3 3 2
7 7 9 9 10 8 7 6 7 7 7 6 5 6 6 5 6 5 6 6 5 5 4 4 4 4 5 5 4 4 4 4 5 4 4 5 4 5 5 3 3 3
8 8 8 7 7 8 7 7 7 7 6 7 7 6 6 5 6 6 4 5 5 4 4 5 5 5 4 3 4 4 4 4 4 4 3 1 2 3 3 2 2 1
8 8 7 7 6 7 7 8 8 8 7 7 6 6 7 7 6 6 5 5 5 4 5 5 5 6 6 5 5 5 3 3 2 3 4 3 2 1 2 2 2 2
5 6 6 7 8 8 8 8 7 7 6 6 7 6 6 6 7 6 6 6 5 6 5 5 6 5 6 6 6 6 5 5 3 4 3 3 1 1 0 1 1 2
7 7 7 7 7 7 8 7 6 6 6 6 6 6 6 6 6 5 5 6 5 6 6 5 6 5 5 5 5 4 3 4 3 2 1 0 1 2 1 1 1 1
7 5 7 6 7 6 7 6 6 6 7 6 6 6 7 6 6 6 6 6 6 5 5 5 4 4 3 1 2 2 3 2 2 2 2 1 2 1 1 1 2 2
7 6 7 6 7 6 7 7 6 5 6 7 7 6 6 7 6 6 6 6 6 6 6 5 6 6 4 5 4 5 4 4 4 3 3 2 2 1 1 1 2 2
7 6 7 7 7 6 7 6 6 5 5 7 7 6 7 6 6 6 6 6 6 6 6 6 6 5 4 3 4 4 4 3 3 2 2 2 2 1 1 1 1 1
7 7 8 7 7 6 7 6 6 6 6 7 7 6 6 6 6 6 6 6 7 7 6 5 5 4 4 4 3 3 4 4 3 3 2 1 0 1 3 1 1 2
9 8 9 8 8 7 7 6 6 6 6 6 7 8 6 6 6 6 7 6 6 7 7 6 6 5 5 5 4 4 3 2 2 2 2 2 2 2 2 2 2 3
9 8 8 8 7 7 7 6 6 6 7 7 6 7 7 6 5 6 5 6 6 6 6 6 5 5 5 4 3 3 3 3 2 1 0 1 1 1 1 1 2 2
6 6 7 7 7 7 7 6 6 6 6 6 6 6 6 6 7 7 6 6 7 7 6 6 6 5 4 4 4 4 4 4 4 3 3 3 3 3 3 3 3 3
5 5 6 8 7 7 7 7 7 6 7 6 6 6 5 5 5 6 7 7 7 7 5 5 6 5 4 4 5 4 4 4 3 2 2 2 3 4 3 3 4 3
5 5 7 7 8 8 7 6 7 7 7 7 7 6 6 5 5 6 7 8 8 6 5 6 5 4 6 9 6 5 4 3 2 2 1 0 1 2 3 3 3 4
6 6 7 8 7 6 6 6 7 7 7 7 7 7 6 5 6 7 7 7 7 7 7 6 4 4 9 7 7 7 4 3 2 0 0 0 1 1 3 5 4 4
7 7 7 7 7 6 6 5 5 6 7 7 8 8 6 5 6 7 8 7 7 7 7 6 5 7 8 7 7 7 5 3 2 1 0 0 1 1 2 3 5 5
7 8 8 8 7 7 6 6 6 6 7 7 8 7 6 6 6 8 8 7 8 8 7 6 4 8 9 9 8 8 7 4 2 1 1 1 2 2 2 3 4 5
8 8 9 8 8 8 8 8 7 7 6 5 6 6 6 6 7 9 8 8 8 8 7 5 5 8 10 10 9 9 9 6 3 3 2 2 2 2 2 3 3 4
8 8 9 8 8 8 8 8 8 7 7 6 6 7 7 8 8 9 8 7 7 7 7 6 5 10 10 10 11 10 10 7 4 4 4 3 3 3 3 4 4 4
10 10 9 9 9 8 8 8 8 8 9 7 6 5 5 6 6 8 8 8 7 8 8 7 6 11 11 11 10 10 8 5 4 4 3 4 4 4 4 4 4 4
9 10 10 10 9 9 9 8 9 8 7 6 7 6 6 7 7 7 7 8 8 7 8 7 6 8 10 10 10 9 6 4 4 3 3 3 4 3 3 4 3 4
9 10 11 10 10 10 9 7 5 5 6 5 8 8 7 7 7 8 7 7 8 7 7 7 5 7 10 10 11 11 7 4 3 3 3 2 1 2 3 3 4 6
8 9 9 10 9 8 8 9 7 7 6 6 6 7 7 7 7 8 7 6 6 7 9 8 5 5 9 11 11 11 7 3 4 4 2 2 3 3 3 3 2 4
6 7 7 8 9 8 6 7 6 7 7 7 6 7 8 7 7 8 8 7 6 7 6 5 5 4 6 11 10 9 8 5 4 3 4 4 3 3 3 3 3 4
Wind_Direction
174 177 180 184 183 177 170 168 173 169 174 173 181 196 193 205 189 184 189 183 185 185 182 178 172 165 165 159 162 149 165 183 192 193 193 192 211 204 209 220 210 206
178 176 175 170 167 172 173 168 171 173 181 182 190 192 199 178 178 164 156 149 140 143 156 159 162 159 158 161 157 155 165 167 200 185 184 192 218 199 218 213 211 233
169 173 177 180 182 180 174 175 173 181 180 183 166 154 152 147 134 127 133 135 125 115 106 121 134 152 158 159 158 160 167 174 197 195 178 201 192 192 212 204 206 224
183 182 180 178 171 173 166 159 168 166 158 152 157 150 135 133 122 120 118 119 115 103 98 89 101 98 110 127 135 147 171 186 206 176 176 147 171 174 196 188 212 237
183 177 172 169 166 158 158 154 156 155 155 153 134 133 126 125 118 117 116 107 109 104 99 103 90 92 98 97 108 104 110 120 122 130 126 120 86 84 23 50 355 324
177 173 169 165 164 159 159 159 159 151 145 143 150 138 132 126 125 131 128 120 114 116 112 109 100 98 98 100 94 110 128 116 133 116 111 115 115 125 190 17 340 312
171 164 163 155 153 159 154 157 155 150 152 151 133 138 132 125 133 137 130 128 125 126 126 121 116 106 108 105 108 119 115 125 116 92 71 299 294 288 284 223 197 192
165 160 151 149 149 156 154 157 158 158 151 139 139 147 133 136 136 137 134 132 126 124 114 112 106 102 91 95 99 97 103 120 117 128 132 109 94 39 320 308 312 314
154 158 153 155 152 156 155 157 154 151 151 139 136 135 131 138 143 142 143 133 124 118 113 108 103 102 117 130 140 140 133 129 131 120 118 116 111 143 86 56 38 8
158 158 155 158 159 162 157 156 148 149 144 132 134 132 132 140 141 141 136 133 127 121 113 109 107 113 113 124 141 142 129 121 118 126 129 136 132 129 76 46 339 344
164 163 162 164 160 156 153 148 147 141 134 135 133 131 136 133 134 133 133 136 140 137 123 115 128 147 149 143 140 141 136 131 129 126 132 142 161 200 202 199 219 230
171 168 169 165 156 151 149 150 146 140 136 136 140 140 139 141 142 144 142 142 136 134 143 156 161 158 151 153 147 138 142 145 155 159 194 195 201 207 207 211 214 240
173 174 164 157 152 146 143 143 144 141 137 142 142 140 143 144 144 136 141 135 133 128 135 147 150 145 138 132 114 94 91 89 83 71 33 353 305 296 299 298 277 267
173 159 151 146 139 138 142 143 139 136 133 132 131 136 146 150 148 140 141 130 129 124 132 130 130 123 115 107 100 99 92 74 69 52 31 6 352 343 338 320 298 284
151 150 142 134 134 136 140 144 142 136 131 129 127 133 139 148 142 138 135 125 115 119 125 122 112 112 110 108 103 89 90 87 79 64 44 14 348 341 330 323 310 293
153 147 142 133 135 142 145 143 141 140 136 133 134 136 138 148 145 138 133 128 124 125 123 111 107 102 106 106 109 115 108 104 87 80 70 33 323 320 315 309 298 301
148 148 137 135 136 132 138 142 144 142 136 133 136 138 146 154 150 138 128 124 127 127 114 105 100 99 97 93 95 100 105 107 123 141 28 312 295 296 306 311 312 304
150 143 134 131 131 137 141 142 137 136 136 139 141 143 150 154 147 133 119 116 113 108 105 106 103 102 99 96 96 95 102 111 125 140 170 253 307 313 298 307 307 312
149 145 138 138 141 140 140 139 140 137 142 146 151 150 143 145 141 115 108 106 109 111 108 103 99 98 93 86 80 76 81 98 103 117 90 6 349 331 311 309 312 321
149 146 144 145 144 144 145 147 148 154 153 146 138 141 141 134 115 107 107 105 109 111 107 98 89 84 78 73 67 61 60 64 59 63 53 33 1 339 347 344 341 342
151 149 146 146 148 148 148 151 151 149 148 148 144 146 143 134 124 112 108 109 107 107 102 92 88 79 73 67 60 53 50 45 42 40 40 30 20 20 13 4 357 354
154 149 146 146 147 148 150 152 153 153 146 145 131 126 117 112 98 102 108 106 107 105 100 92 77 73 70 69 66 60 57 47 50 47 42 43 27 20 5 354 359 348
156 150 149 150 151 151 153 155 151 144 139 139 125 126 118 107 109 106 110 107 105 103 102 96 83 78 85 85 79 74 70 61 62 56 60 55 24 355 345 350 343 334
156 152 151 152 155 157 153 146 136 125 132 144 133 131 115 115 113 101 94 100 105 107 109 106 99 94 95 91 84 77 80 79 76 79 65 60 8 343 359 346 326 332
149 149 151 151 151 149 147 144 143 138 133 121 120 114 111 109 99 98 96 90 97 105 106 103 101 91 91 85 78 79 79 84 86 79 93 47 17 13 353 339 325 327
139 140 141 143 140 134 131 131 134 125 124 117 109 108 108 98 96 100 104 105 102 102 104 107 104 89 82 76 68 68 78 80 80 80 47 35 11 1 337 328 331 323